| time (UTC) | temp C | wind direction | speed KPH | gust KPH | rain 1hr cm | rain 24hr cm | rain mn cm | humidity % | barometer mb |
| 20260509054330 | 11 | 235 | 1.6 | 4.8 | 0.00 | 0.46 | 0.00 | 96 | 1007.1 |
| 20260509053835 | 11 | 235 | 1.6 | 8.0 | 0.00 | 0.46 | 0.00 | 96 | 1007.3 |
| 20260509053347 | 11 | 236 | 1.6 | 6.4 | 0.00 | 0.46 | 0.00 | 96 | 1007.3 |
| 20260509052833 | 11 | 236 | 0.0 | 6.4 | 0.00 | 0.46 | 0.00 | 96 | 1007.3 |
| 20260509052326 | 11 | 236 | 1.6 | 6.4 | 0.00 | 0.46 | 0.00 | 96 | 1007.2 |
| 20260509051834 | 11 | 236 | 0.0 | 6.4 | 0.00 | 0.46 | 0.00 | 96 | 1007.1 |
| 20260509051328 | 11 | 238 | 0.0 | 8.0 | 0.00 | 0.46 | 0.00 | 96 | 1007.1 |
| 20260509050837 | 11 | 238 | 3.2 | 8.0 | 0.00 | 0.46 | 0.00 | 96 | 1007.3 |
| 20260509050330 | 11 | 238 | 0.0 | 4.8 | 0.00 | 0.46 | 0.00 | 96 | 1007.2 |
| 20260509045833 | 11 | 240 | 1.6 | 6.4 | 0.00 | 0.46 | 0.00 | 96 | 1007.1 |
| 20260509045326 | 11 | 242 | 3.2 | 6.4 | 0.00 | 0.46 | 0.00 | 96 | 1007.2 |
| 20260509044900 | 11 | 251 | 1.6 | 6.4 | 0.00 | 0.46 | 0.00 | 96 | 1007.3 |
| 20260509044351 | 11 | 251 | 1.6 | 8.0 | 0.00 | 0.46 | 0.00 | 96 | 1007.3 |
| 20260509043838 | 11 | 251 | 3.2 | 8.0 | 0.00 | 0.46 | 0.00 | 96 | 1007.3 |
| 20260509043331 | 11 | 257 | 1.6 | 6.4 | 0.00 | 0.46 | 0.00 | 96 | 1007.3 |
| 20260509042839 | 11 | 257 | 1.6 | 6.4 | 0.00 | 0.46 | 0.00 | 95 | 1007.2 |
| 20260509042326 | 11 | 257 | 0.0 | 0.0 | 0.00 | 0.46 | 0.00 | 96 | 1007.3 |
| 20260509041837 | 11 | 257 | 0.0 | 0.0 | 0.00 | 0.46 | 0.00 | 96 | 1007.3 |
| 20260509041329 | 11 | 257 | 0.0 | 0.0 | 0.00 | 0.46 | 0.00 | 96 | 1007.3 |
| 20260509040835 | 11 | 257 | 0.0 | 0.0 | 0.00 | 0.46 | 0.00 | 96 | 1007.1 |
| 20260509040327 | 11 | 257 | 0.0 | 0.0 | 0.00 | 0.46 | 0.00 | 95 | 1007.3 |
| 20260509035838 | 11 | 257 | 0.0 | 0.0 | 0.00 | 0.46 | 0.46 | 95 | 1007.2 |
| 20260509035330 | 11 | 257 | 0.0 | 0.0 | 0.00 | 0.46 | 0.46 | 95 | 1007.3 |
| 20260509034838 | 11 | 257 | 0.0 | 0.0 | 0.00 | 0.46 | 0.46 | 95 | 1007.4 |
| 20260509034327 | 11 | 257 | 0.0 | 0.0 | 0.00 | 0.46 | 0.46 | 95 | 1007.4 |
| 20260509033836 | 11 | 257 | 0.0 | 3.2 | 0.00 | 0.46 | 0.46 | 95 | 1007.4 |
| 20260509033329 | 11 | 257 | 0.0 | 3.2 | 0.00 | 0.46 | 0.46 | 95 | 1007.6 |
| 20260509032839 | 11 | 257 | 0.0 | 3.2 | 0.00 | 0.46 | 0.46 | 95 | 1007.6 |
| 20260509032351 | 11 | 257 | 0.0 | 3.2 | 0.00 | 0.46 | 0.46 | 95 | 1007.6 |
| 20260509031838 | 11 | 257 | 0.0 | 3.2 | 0.00 | 0.46 | 0.46 | 95 | 1007.7 |
| 20260509031330 | 11 | 257 | 0.0 | 0.0 | 0.00 | 0.46 | 0.46 | 95 | 1007.7 |
| 20260509030834 | 11 | 257 | 0.0 | 0.0 | 0.00 | 0.46 | 0.46 | 95 | 1007.7 |
| 20260509030328 | 11 | 257 | 0.0 | 0.0 | 0.00 | 0.46 | 0.46 | 95 | 1007.7 |
| 20260509025859 | 11 | 257 | 0.0 | 0.0 | 0.00 | 0.46 | 0.46 | 95 | 1007.7 |
| 20260509025330 | 11 | 257 | 0.0 | 0.0 | 0.00 | 0.46 | 0.46 | 95 | 1007.4 |
| 20260509024836 | 11 | 257 | 0.0 | 0.0 | 0.00 | 0.46 | 0.46 | 95 | 1007.6 |
| 20260509024325 | 11 | 257 | 0.0 | 0.0 | 0.00 | 0.46 | 0.46 | 95 | 1007.5 |
| 20260509023849 | 11 | 257 | 0.0 | 3.2 | 0.00 | 0.46 | 0.46 | 94 | 1007.5 |
| 20260509023354 | 11 | 257 | 0.0 | 1.6 | 0.00 | 0.46 | 0.46 | 95 | 1007.6 |
| 20260509022838 | 12 | 257 | 0.0 | 1.6 | 0.00 | 0.46 | 0.46 | 94 | 1007.5 |
| 20260509022330 | 12 | 257 | 0.0 | 4.8 | 0.00 | 0.46 | 0.46 | 94 | 1007.4 |
| 20260509021836 | 12 | 257 | 1.6 | 4.8 | 0.00 | 0.46 | 0.46 | 94 | 1007.4 |
| 20260509021329 | 12 | 257 | 0.0 | 4.8 | 0.00 | 0.46 | 0.46 | 94 | 1007.4 |
| 20260509020836 | 12 | 257 | 0.0 | 4.8 | 0.00 | 0.46 | 0.46 | 94 | 1007.4 |
| 20260509020328 | 12 | 257 | 0.0 | 3.2 | 0.00 | 0.46 | 0.46 | 94 | 1007.5 |
| 20260509015826 | 12 | 257 | 0.0 | 4.8 | 0.00 | 0.46 | 0.46 | 94 | 1007.5 |
| 20260509015407 | 12 | 257 | 1.6 | 4.8 | 0.00 | 0.46 | 0.46 | 94 | 1007.4 |
| 20260509014824 | 12 | 257 | 0.0 | 6.4 | 0.00 | 0.46 | 0.46 | 94 | 1007.5 |
| 20260509014410 | 12 | 257 | 1.6 | 6.4 | 0.00 | 0.46 | 0.46 | 94 | 1007.6 |
| 20260509013830 | 12 | 257 | 1.6 | 4.8 | 0.00 | 0.46 | 0.46 | 94 | 1007.6 |
| 20260509013345 | 12 | 257 | 0.0 | 9.7 | 0.00 | 0.46 | 0.46 | 94 | 1007.7 |
| 20260509012858 | 12 | 258 | 1.6 | 11.3 | 0.00 | 0.46 | 0.46 | 94 | 1007.6 |
| 20260509012346 | 12 | 269 | 3.2 | 14.5 | 0.00 | 0.46 | 0.46 | 94 | 1007.5 |
| 20260509011834 | 12 | 254 | 4.8 | 12.9 | 0.00 | 0.46 | 0.46 | 93 | 1007.4 |
| 20260509011326 | 12 | 267 | 4.8 | 12.9 | 0.00 | 0.46 | 0.46 | 93 | 1007.4 |
| 20260509010833 | 12 | 260 | 3.2 | 11.3 | 0.00 | 0.46 | 0.46 | 93 | 1007.4 |
| 20260509010327 | 12 | 216 | 4.8 | 11.3 | 0.00 | 0.46 | 0.46 | 93 | 1007.4 |
| 20260509005827 | 12 | 244 | 6.4 | 12.9 | 0.00 | 0.46 | 0.46 | 93 | 1007.4 |
| 20260509005334 | 12 | 234 | 3.2 | 16.1 | 0.00 | 0.46 | 0.46 | 93 | 1007.3 |
| 20260509004912 | 12 | 284 | 8.0 | 16.1 | 0.00 | 0.46 | 0.46 | 93 | 1007.2 |
| 20260509004409 | 12 | 244 | 4.8 | 12.9 | 0.00 | 0.46 | 0.46 | 92 | 1007.3 |
| 20260509003855 | 12 | 229 | 4.8 | 12.9 | 0.00 | 0.46 | 0.46 | 92 | 1007.3 |
| 20260509003326 | 12 | 236 | 4.8 | 11.3 | 0.00 | 0.46 | 0.46 | 93 | 1007.3 |
| 20260509002834 | 12 | 257 | 6.4 | 11.3 | 0.00 | 0.46 | 0.46 | 93 | 1007.3 |
| 20260509002348 | 12 | 277 | 3.2 | 12.9 | 0.00 | 0.46 | 0.46 | 93 | 1007.3 |
| 20260509001837 | 12 | 248 | 4.8 | 12.9 | 0.00 | 0.46 | 0.46 | 93 | 1007.4 |
| 20260509001325 | 12 | 242 | 4.8 | 11.3 | 0.00 | 0.46 | 0.46 | 93 | 1007.4 |
| 20260509000834 | 13 | 273 | 4.8 | 11.3 | 0.00 | 0.46 | 0.46 | 93 | 1007.3 |
| 20260509000328 | 13 | 250 | 4.8 | 11.3 | 0.00 | 0.46 | 0.46 | 93 | 1007.4 |
| 20260508235855 | 13 | 249 | 6.4 | 11.3 | 0.00 | 0.46 | 0.46 | 93 | 1007.4 |
| 20260508235348 | 13 | 275 | 3.2 | 11.3 | 0.00 | 0.46 | 0.46 | 93 | 1007.5 |
| 20260508234833 | 13 | 243 | 6.4 | 14.5 | 0.00 | 0.46 | 0.46 | 93 | 1007.5 |
| 20260508234347 | 13 | 254 | 4.8 | 14.5 | 0.00 | 0.46 | 0.46 | 93 | 1007.5 |
| 20260508233852 | 13 | 251 | 1.6 | 11.3 | 0.00 | 0.46 | 0.46 | 93 | 1007.5 |
| 20260508233336 | 13 | 264 | 3.2 | 11.3 | 0.00 | 0.46 | 0.46 | 93 | 1007.6 |
| 20260508232859 | 13 | 232 | 4.8 | 12.9 | 0.00 | 0.46 | 0.46 | 93 | 1007.6 |
| 20260508232329 | 13 | 235 | 4.8 | 12.9 | 0.00 | 0.46 | 0.46 | 93 | 1007.6 |
| 20260508231838 | 13 | 248 | 1.6 | 12.9 | 0.00 | 0.46 | 0.46 | 93 | 1007.6 |
| 20260508231330 | 13 | 275 | 4.8 | 12.9 | 0.00 | 0.46 | 0.46 | 93 | 1007.6 |
| 20260508230838 | 13 | 256 | 4.8 | 12.9 | 0.00 | 0.46 | 0.46 | 93 | 1007.6 |
| 20260508230332 | 13 | 255 | 4.8 | 12.9 | 0.00 | 0.46 | 0.46 | 93 | 1007.6 |
| 20260508225953 | 13 | 256 | 3.2 | 8.0 | 0.00 | 0.46 | 0.46 | 94 | 1007.6 |
| 20260508225353 | 13 | 218 | 3.2 | 8.0 | 0.00 | 0.46 | 0.46 | 94 | 1007.7 |
| 20260508224839 | 13 | 218 | 1.6 | 9.7 | 0.00 | 0.46 | 0.46 | 94 | 1007.7 |
| 20260508224351 | 13 | 219 | 4.8 | 11.3 | 0.00 | 0.46 | 0.46 | 94 | 1007.7 |
| 20260508223832 | 13 | 211 | 4.8 | 11.3 | 0.00 | 0.46 | 0.46 | 94 | 1007.7 |
| 20260508223324 | 13 | 251 | 3.2 | 11.3 | 0.00 | 0.46 | 0.46 | 94 | 1007.7 |
| 20260508222853 | 12 | 252 | 4.8 | 11.3 | 0.00 | 0.46 | 0.46 | 94 | 1007.8 |
| 20260508222341 | 12 | 275 | 1.6 | 11.3 | 0.00 | 0.46 | 0.46 | 94 | 1007.7 |
| 20260508221856 | 12 | 275 | 4.8 | 11.3 | 0.00 | 0.46 | 0.46 | 94 | 1008.0 |
| 20260508221349 | 12 | 273 | 4.8 | 11.3 | 0.00 | 0.46 | 0.46 | 94 | 1007.8 |
| 20260508220857 | 12 | 223 | 3.2 | 6.4 | 0.00 | 0.46 | 0.46 | 94 | 1007.8 |
| 20260508220329 | 12 | 222 | 0.0 | 9.7 | 0.03 | 0.46 | 0.46 | 94 | 1007.7 |
| 20260508215849 | 12 | 223 | 1.6 | 9.7 | 0.03 | 0.46 | 0.46 | 93 | 1007.7 |
| 20260508215338 | 12 | 248 | 3.2 | 11.3 | 0.03 | 0.46 | 0.46 | 93 | 1007.7 |
| 20260508214839 | 12 | 244 | 4.8 | 11.3 | 0.03 | 0.46 | 0.46 | 92 | 1007.7 |
| 20260508214331 | 12 | 263 | 3.2 | 16.1 | 0.03 | 0.46 | 0.46 | 92 | 1007.7 |
| 20260508213840 | 12 | 260 | 4.8 | 16.1 | 0.05 | 0.46 | 0.46 | 92 | 1007.8 |
| 20260508213352 | 13 | 258 | 6.4 | 17.7 | 0.05 | 0.46 | 0.46 | 93 | 1007.8 |
| 20260508212904 | 13 | 264 | 8.0 | 17.7 | 0.05 | 0.46 | 0.46 | 93 | 1008.0 |
| 20260508212335 | 13 | 281 | 4.8 | 19.3 | 0.08 | 0.46 | 0.46 | 94 | 1008.1 |
| 20260508211843 | 13 | 251 | 8.0 | 19.3 | 0.10 | 0.46 | 0.46 | 94 | 1008.2 |
| 20260508211331 | 13 | 260 | 4.8 | 12.9 | 0.13 | 0.46 | 0.46 | 95 | 1008.1 |
| 20260508210837 | 13 | 240 | 6.4 | 14.5 | 0.13 | 0.46 | 0.46 | 94 | 1008.2 |
| 20260508210350 | 13 | 252 | 4.8 | 16.1 | 0.13 | 0.43 | 0.46 | 94 | 1008.1 |
| 20260508205836 | 13 | 243 | 6.4 | 14.5 | 0.13 | 0.43 | 0.43 | 95 | 1008.3 |
| 20260508205346 | 13 | 258 | 1.6 | 9.7 | 0.15 | 0.43 | 0.43 | 95 | 1008.2 |
| 20260508204842 | 13 | 263 | 3.2 | 6.4 | 0.18 | 0.43 | 0.43 | 95 | 1008.3 |
| 20260508204353 | 13 | 267 | 1.6 | 12.9 | 0.18 | 0.43 | 0.43 | 94 | 1008.5 |
| 20260508203901 | 13 | 275 | 3.2 | 12.9 | 0.18 | 0.41 | 0.41 | 94 | 1008.6 |
| 20260508203331 | 13 | 253 | 6.4 | 11.3 | 0.20 | 0.41 | 0.41 | 94 | 1008.7 |
| 20260508202838 | 13 | 266 | 4.8 | 11.3 | 0.20 | 0.38 | 0.38 | 94 | 1008.7 |
| 20260508202349 | 13 | 279 | 4.8 | 6.4 | 0.23 | 0.38 | 0.38 | 94 | 1008.7 |
| 20260508201836 | 13 | 280 | 1.6 | 8.0 | 0.23 | 0.36 | 0.36 | 94 | 1008.8 |
| 20260508201347 | 13 | 281 | 1.6 | 8.0 | 0.23 | 0.33 | 0.33 | 94 | 1008.9 |
| 20260508200854 | 13 | 280 | 4.8 | 6.4 | 0.25 | 0.33 | 0.33 | 94 | 1009.0 |
| 20260508200340 | 12 | 279 | 3.2 | 12.9 | 0.25 | 0.30 | 0.30 | 93 | 1009.1 |
| 20260508195839 | 13 | 278 | 4.8 | 12.9 | 0.25 | 0.30 | 0.30 | 93 | 1009.1 |
| 20260508195351 | 13 | 284 | 4.8 | 12.9 | 0.20 | 0.25 | 0.25 | 93 | 1009.1 |
| 20260508194831 | 13 | 272 | 6.4 | 12.9 | 0.20 | 0.25 | 0.25 | 92 | 1009.2 |
| 20260508194337 | 13 | 317 | 6.4 | 14.5 | 0.18 | 0.23 | 0.23 | 92 | 1009.3 |
| 20260508193825 | 13 | 306 | 4.8 | 14.5 | 0.18 | 0.23 | 0.23 | 92 | 1009.4 |
| 20260508193411 | 13 | 277 | 6.4 | 14.5 | 0.18 | 0.20 | 0.20 | 90 | 1009.5 |
| 20260508192827 | 13 | 316 | 6.4 | 14.5 | 0.15 | 0.18 | 0.18 | 89 | 1009.6 |
| 20260508192405 | 13 | 333 | 8.0 | 14.5 | 0.13 | 0.15 | 0.15 | 89 | 1009.3 |
| 20260508191824 | 13 | 302 | 0.0 | 17.7 | 0.10 | 0.13 | 0.13 | 88 | 1009.4 |
| 20260508191350 | 14 | 308 | 8.0 | 17.7 | 0.08 | 0.10 | 0.10 | 86 | 1009.6 |
| 20260508190830 | 14 | 253 | 6.4 | 12.9 | 0.05 | 0.08 | 0.08 | 85 | 1009.4 |
| 20260508190345 | 14 | 263 | 6.4 | 17.7 | 0.03 | 0.05 | 0.05 | 85 | 1009.4 |
| 20260508185836 | 14 | 290 | 6.4 | 17.7 | 0.03 | 0.05 | 0.05 | 83 | 1009.3 |
| 20260508185324 | 15 | 279 | 8.0 | 17.7 | 0.03 | 0.05 | 0.05 | 81 | 1009.3 |
| 20260508184832 | 15 | 284 | 9.7 | 25.7 | 0.03 | 0.05 | 0.05 | 78 | 1009.4 |
| 20260508184325 | 15 | 277 | 11.3 | 25.7 | 0.03 | 0.05 | 0.05 | 76 | 1009.5 |
| 20260508183834 | 15 | 293 | 8.0 | 22.5 | 0.03 | 0.05 | 0.05 | 75 | 1009.5 |
| 20260508183346 | 16 | 319 | 12.9 | 24.1 | 0.00 | 0.03 | 0.03 | 71 | 1009.4 |
| 20260508182835 | 16 | 300 | 12.9 | 24.1 | 0.00 | 0.03 | 0.03 | 68 | 1009.4 |
| 20260508182348 | 17 | 263 | 12.9 | 29.0 | 0.00 | 0.03 | 0.03 | 66 | 1009.2 |
| 20260508181828 | 17 | 287 | 19.3 | 30.6 | 0.00 | 0.03 | 0.03 | 64 | 1009.1 |
| 20260508181336 | 17 | 309 | 9.7 | 20.9 | 0.00 | 0.03 | 0.03 | 66 | 1009.2 |
| 20260508180852 | 16 | 272 | 12.9 | 20.9 | 0.00 | 0.03 | 0.03 | 69 | 1009.2 |
| 20260508180337 | 16 | 312 | 3.2 | 9.7 | 0.00 | 0.03 | 0.03 | 68 | 1009.4 |
| 20260508175835 | 16 | 283 | 6.4 | 14.5 | 0.00 | 0.03 | 0.03 | 70 | 1009.4 |
| 20260508175328 | 16 | 275 | 4.8 | 16.1 | 0.00 | 0.03 | 0.03 | 68 | 1009.6 |
| 20260508174838 | 16 | 299 | 6.4 | 14.5 | 0.00 | 0.03 | 0.03 | 68 | 1009.5 |
| 20260508174350 | 16 | 275 | 4.8 | 14.5 | 0.00 | 0.03 | 0.03 | 68 | 1009.6 |
| 20260508173829 | 16 | 258 | 3.2 | 14.5 | 0.00 | 0.03 | 0.03 | 68 | 1009.6 |
| 20260508173339 | 16 | 325 | 6.4 | 17.7 | 0.00 | 0.03 | 0.03 | 69 | 1009.7 |
| 20260508172901 | 16 | 229 | 8.0 | 17.7 | 0.00 | 0.03 | 0.03 | 68 | 1009.8 |
| 20260508172332 | 15 | 274 | 8.0 | 17.7 | 0.00 | 0.03 | 0.03 | 68 | 1009.9 |
| 20260508171840 | 15 | 262 | 11.3 | 16.1 | 0.00 | 0.03 | 0.03 | 67 | 1009.9 |
| 20260508171352 | 16 | 267 | 6.4 | 19.3 | 0.00 | 0.03 | 0.03 | 67 | 1010.0 |
| 20260508170833 | 16 | 290 | 9.7 | 24.1 | 0.00 | 0.03 | 0.03 | 68 | 1010.1 |
| 20260508170325 | 16 | 296 | 6.4 | 17.7 | 0.00 | 0.03 | 0.03 | 66 | 1010.2 |
| 20260508165838 | 16 | 232 | 9.7 | 22.5 | 0.00 | 0.03 | 0.03 | 66 | 1010.3 |
| 20260508165332 | 15 | 302 | 11.3 | 22.5 | 0.00 | 0.03 | 0.03 | 68 | 1010.4 |
| 20260508164840 | 15 | 215 | 4.8 | 16.1 | 0.00 | 0.03 | 0.03 | 68 | 1010.4 |
| 20260508164332 | 15 | 298 | 6.4 | 16.1 | 0.00 | 0.03 | 0.03 | 68 | 1010.5 |
| 20260508163841 | 15 | 292 | 4.8 | 16.1 | 0.00 | 0.03 | 0.03 | 70 | 1010.7 |
| 20260508163351 | 15 | 223 | 4.8 | 17.7 | 0.00 | 0.03 | 0.03 | 69 | 1010.8 |
| 20260508162832 | 15 | 236 | 8.0 | 17.7 | 0.00 | 0.03 | 0.03 | 69 | 1011.0 |
| 20260508162325 | 14 | 232 | 6.4 | 20.9 | 0.00 | 0.03 | 0.03 | 68 | 1011.0 |
| 20260508161830 | 15 | 255 | 11.3 | 20.9 | 0.00 | 0.03 | 0.03 | 68 | 1011.1 |
| 20260508161403 | 15 | 284 | 9.7 | 16.1 | 0.00 | 0.03 | 0.03 | 69 | 1011.1 |
| 20260508160855 | 15 | 294 | 8.0 | 16.1 | 0.00 | 0.03 | 0.03 | 68 | 1011.0 |
| 20260508160347 | 15 | 286 | 6.4 | 16.1 | 0.00 | 0.03 | 0.03 | 69 | 1011.0 |
| 20260508155837 | 15 | 215 | 9.7 | 17.7 | 0.00 | 0.03 | 0.03 | 67 | 1010.9 |
| 20260508155352 | 15 | 293 | 8.0 | 17.7 | 0.00 | 0.03 | 0.03 | 70 | 1010.9 |
| 20260508154831 | 15 | 248 | 4.8 | 16.1 | 0.00 | 0.03 | 0.03 | 72 | 1011.0 |
| 20260508154325 | 15 | 302 | 8.0 | 16.1 | 0.00 | 0.03 | 0.03 | 69 | 1011.1 |
| 20260508153826 | 15 | 246 | 6.4 | 17.7 | 0.00 | 0.03 | 0.03 | 70 | 1011.1 |
| 20260508153355 | 14 | 255 | 8.0 | 17.7 | 0.00 | 0.03 | 0.03 | 71 | 1011.2 |
| 20260508152839 | 14 | 219 | 3.2 | 20.9 | 0.00 | 0.03 | 0.03 | 73 | 1011.1 |
| 20260508152349 | 13 | 280 | 12.9 | 20.9 | 0.00 | 0.03 | 0.03 | 70 | 1011.1 |
| 20260508151844 | 13 | 243 | 8.0 | 14.5 | 0.00 | 0.03 | 0.03 | 75 | 1011.3 |
| 20260508151353 | 13 | 297 | 6.4 | 14.5 | 0.00 | 0.03 | 0.03 | 74 | 1011.2 |
| 20260508150827 | 13 | 292 | 3.2 | 11.3 | 0.00 | 0.03 | 0.03 | 79 | 1011.3 |
| 20260508150411 | 12 | 290 | 4.8 | 8.0 | 0.00 | 0.03 | 0.03 | 75 | 1011.4 |
| 20260508145837 | 12 | 290 | 3.2 | 8.0 | 0.00 | 0.03 | 0.03 | 77 | 1011.4 |
| 20260508145327 | 12 | 292 | 4.8 | 8.0 | 0.00 | 0.03 | 0.03 | 80 | 1011.4 |
| 20260508144833 | 12 | 288 | 4.8 | 8.0 | 0.03 | 0.03 | 0.03 | 78 | 1011.4 |
| 20260508144337 | 12 | 292 | 3.2 | 11.3 | 0.03 | 0.03 | 0.03 | 83 | 1011.4 |
| 20260508143843 | 12 | 293 | 3.2 | 11.3 | 0.03 | 0.03 | 0.03 | 83 | 1011.6 |
| 20260508143330 | 11 | 296 | 0.0 | 3.2 | 0.03 | 0.03 | 0.03 | 86 | 1011.6 |
| 20260508142836 | 11 | 295 | 0.0 | 3.2 | 0.03 | 0.03 | 0.03 | 88 | 1011.7 |
| 20260508142329 | 11 | 295 | 0.0 | 6.4 | 0.03 | 0.03 | 0.03 | 87 | 1011.7 |
| 20260508141836 | 11 | 294 | 1.6 | 6.4 | 0.03 | 0.03 | 0.03 | 85 | 1011.7 |
| 20260508141328 | 11 | 296 | 0.0 | 1.6 | 0.03 | 0.03 | 0.03 | 87 | 1011.5 |
| 20260508140832 | 11 | 296 | 0.0 | 0.0 | 0.03 | 0.03 | 0.03 | 86 | 1011.8 |
| 20260508140336 | 11 | 296 | 0.0 | 3.2 | 0.03 | 0.03 | 0.03 | 85 | 1012.0 |
| 20260508135836 | 11 | 296 | 1.6 | 4.8 | 0.03 | 0.03 | 0.03 | 84 | 1011.8 |
| 20260508135325 | 11 | 296 | 1.6 | 8.0 | 0.03 | 0.03 | 0.03 | 82 | 1011.9 |
| 20260508134833 | 11 | 296 | 4.8 | 11.3 | 0.00 | 0.00 | 0.00 | 80 | 1011.9 |
| 20260508134346 | 11 | 327 | 4.8 | 11.3 | 0.00 | 0.00 | 0.00 | 79 | 1012.1 |
| 20260508133855 | 11 | 295 | 6.4 | 11.3 | 0.00 | 0.00 | 0.00 | 78 | 1011.9 |
| 20260508133327 | 11 | 291 | 4.8 | 11.3 | 0.00 | 0.00 | 0.00 | 78 | 1011.8 |
| 20260508132833 | 11 | 295 | 4.8 | 11.3 | 0.00 | 0.00 | 0.00 | 78 | 1011.5 |
| 20260508132337 | 11 | 271 | 3.2 | 12.9 | 0.00 | 0.00 | 0.00 | 79 | 1011.5 |
| 20260508131839 | 11 | 270 | 6.4 | 12.9 | 0.00 | 0.00 | 0.00 | 79 | 1011.6 |
| 20260508131331 | 10 | 280 | 3.2 | 11.3 | 0.00 | 0.00 | 0.00 | 83 | 1011.4 |
| 20260508130839 | 10 | 286 | 4.8 | 11.3 | 0.00 | 0.00 | 0.00 | 84 | 1011.5 |
| 20260508130353 | 10 | 253 | 4.8 | 11.3 | 0.00 | 0.00 | 0.00 | 85 | 1011.4 |
| 20260508125842 | 10 | 261 | 0.0 | 4.8 | 0.00 | 0.00 | 0.00 | 86 | 1011.5 |
| 20260508125335 | 10 | 259 | 0.0 | 4.8 | 0.00 | 0.00 | 0.00 | 86 | 1011.6 |
| 20260508124842 | 10 | 259 | 3.2 | 4.8 | 0.00 | 0.00 | 0.00 | 86 | 1011.7 |
| 20260508124336 | 10 | 259 | 0.0 | 1.6 | 0.00 | 0.00 | 0.00 | 86 | 1011.7 |
| 20260508123839 | 9 | 259 | 0.0 | 1.6 | 0.00 | 0.00 | 0.00 | 86 | 1011.7 |
| 20260508123352 | 10 | 259 | 0.0 | 0.0 | 0.00 | 0.00 | 0.00 | 86 | 1011.7 |
| 20260508122839 | 10 | 259 | 0.0 | 4.8 | 0.00 | 0.00 | 0.00 | 86 | 1011.6 |
| 20260508122333 | 10 | 259 | 0.0 | 6.4 | 0.00 | 0.00 | 0.00 | 86 | 1011.7 |
| 20260508121839 | 10 | 259 | 3.2 | 9.7 | 0.00 | 0.00 | 0.00 | 85 | 1011.7 |
| 20260508121331 | 10 | 263 | 3.2 | 11.3 | 0.00 | 0.00 | 0.00 | 85 | 1011.7 |
| 20260508120839 | 10 | 265 | 4.8 | 11.3 | 0.00 | 0.00 | 0.00 | 85 | 1011.7 |
| 20260508120332 | 10 | 266 | 3.2 | 12.9 | 0.00 | 0.00 | 0.00 | 85 | 1011.8 |
| 20260508115827 | 10 | 288 | 6.4 | 14.5 | 0.00 | 0.00 | 0.00 | 84 | 1011.7 |
| 20260508115413 | 10 | 279 | 6.4 | 14.5 | 0.00 | 0.00 | 0.00 | 84 | 1011.6 |
| 20260508114832 | 10 | 284 | 6.4 | 17.7 | 0.00 | 0.00 | 0.00 | 83 | 1011.5 |
| 20260508114326 | 10 | 249 | 8.0 | 17.7 | 0.00 | 0.00 | 0.00 | 83 | 1011.3 |
| 20260508113834 | 10 | 278 | 4.8 | 16.1 | 0.00 | 0.00 | 0.00 | 83 | 1011.2 |
| 20260508113347 | 10 | 278 | 6.4 | 16.1 | 0.00 | 0.00 | 0.00 | 83 | 1011.3 |
| 20260508112901 | 10 | 286 | 9.7 | 17.7 | 0.00 | 0.00 | 0.00 | 83 | 1011.3 |
| 20260508112332 | 10 | 312 | 9.7 | 17.7 | 0.00 | 0.00 | 0.00 | 82 | 1011.3 |
| 20260508111836 | 10 | 273 | 8.0 | 16.1 | 0.00 | 0.00 | 0.00 | 81 | 1011.3 |
| 20260508111328 | 10 | 300 | 6.4 | 14.5 | 0.00 | 0.00 | 0.00 | 80 | 1011.3 |
| 20260508110835 | 10 | 289 | 6.4 | 14.5 | 0.00 | 0.00 | 0.00 | 79 | 1011.2 |
| 20260508110328 | 10 | 294 | 9.7 | 19.3 | 0.00 | 0.00 | 0.00 | 77 | 1011.1 |
| 20260508105901 | 10 | 254 | 11.3 | 19.3 | 0.00 | 0.00 | 0.00 | 76 | 1011.3 |
| 20260508105333 | 10 | 260 | 9.7 | 17.7 | 0.00 | 0.00 | 0.00 | 75 | 1011.1 |
| 20260508104841 | 10 | 279 | 8.0 | 20.9 | 0.00 | 0.00 | 0.00 | 74 | 1011.2 |
| 20260508104335 | 10 | 267 | 9.7 | 24.1 | 0.00 | 0.00 | 0.00 | 74 | 1011.2 |
| 20260508103838 | 10 | 266 | 11.3 | 24.1 | 0.00 | 0.00 | 0.00 | 75 | 1011.1 |
| 20260508103351 | 10 | 279 | 9.7 | 19.3 | 0.00 | 0.00 | 0.00 | 76 | 1011.0 |
| 20260508102834 | 10 | 302 | 9.7 | 19.3 | 0.00 | 0.00 | 0.00 | 77 | 1011.0 |
| 20260508102326 | 10 | 276 | 8.0 | 19.3 | 0.00 | 0.00 | 0.00 | 77 | 1011.0 |
| 20260508101833 | 10 | 276 | 8.0 | 17.7 | 0.00 | 0.00 | 0.00 | 77 | 1011.1 |
| 20260508101348 | 10 | 280 | 9.7 | 16.1 | 0.00 | 0.00 | 0.00 | 76 | 1011.1 |
| 20260508100828 | 10 | 280 | 8.0 | 19.3 | 0.00 | 0.00 | 0.00 | 75 | 1011.1 |
| 20260508100357 | 10 | 277 | 6.4 | 19.3 | 0.00 | 0.00 | 0.00 | 75 | 1010.9 |
| 20260508095835 | 10 | 293 | 9.7 | 19.3 | 0.00 | 0.00 | 0.00 | 74 | 1011.0 |
| 20260508095327 | 10 | 267 | 11.3 | 22.5 | 0.00 | 0.00 | 0.00 | 75 | 1011.1 |
| 20260508094837 | 11 | 331 | 14.5 | 22.5 | 0.00 | 0.00 | 0.00 | 74 | 1011.2 |
| 20260508094330 | 11 | 294 | 9.7 | 22.5 | 0.00 | 0.00 | 0.00 | 74 | 1011.3 |
| 20260508093837 | 11 | 293 | 12.9 | 22.5 | 0.00 | 0.00 | 0.00 | 74 | 1011.3 |
| 20260508093351 | 10 | 267 | 12.9 | 24.1 | 0.00 | 0.00 | 0.00 | 74 | 1011.4 |
| 20260508092853 | 10 | 275 | 11.3 | 24.1 | 0.00 | 0.00 | 0.00 | 75 | 1011.4 |
| 20260508092341 | 10 | 253 | 9.7 | 17.7 | 0.00 | 0.00 | 0.00 | 76 | 1011.5 |
| 20260508091901 | 10 | 257 | 9.7 | 20.9 | 0.00 | 0.00 | 0.00 | 77 | 1011.6 |
| 20260508091351 | 10 | 283 | 9.7 | 20.9 | 0.00 | 0.00 | 0.00 | 79 | 1011.6 |
| 20260508090904 | 10 | 271 | 6.4 | 12.9 | 0.00 | 0.00 | 0.00 | 80 | 1011.6 |
| 20260508090410 | 10 | 305 | 6.4 | 14.5 | 0.00 | 0.00 | 0.00 | 80 | 1011.4 |
| 20260508085840 | 10 | 287 | 4.8 | 14.5 | 0.00 | 0.00 | 0.00 | 80 | 1011.5 |
| 20260508085328 | 9 | 265 | 4.8 | 16.1 | 0.00 | 0.00 | 0.00 | 80 | 1011.4 |
| 20260508084836 | 9 | 249 | 4.8 | 16.1 | 0.00 | 0.00 | 0.00 | 80 | 1011.3 |
| 20260508084348 | 9 | 268 | 4.8 | 11.3 | 0.00 | 0.00 | 0.00 | 79 | 1011.3 |
| 20260508083828 | 9 | 272 | 6.4 | 11.3 | 0.00 | 0.00 | 0.00 | 79 | 1011.2 |
| 20260508083332 | 9 | 275 | 4.8 | 11.3 | 0.00 | 0.00 | 0.00 | 78 | 1011.4 |
| 20260508082841 | 10 | 276 | 4.8 | 11.3 | 0.00 | 0.00 | 0.00 | 78 | 1011.4 |
| 20260508082333 | 10 | 282 | 3.2 | 14.5 | 0.00 | 0.00 | 0.00 | 77 | 1011.4 |
| 20260508081914 | 10 | 282 | 6.4 | 14.5 | 0.00 | 0.00 | 0.00 | 77 | 1011.2 |
| 20260508081349 | 10 | 279 | 6.4 | 12.9 | 0.00 | 0.00 | 0.00 | 76 | 1011.1 |
| 20260508080835 | 10 | 271 | 8.0 | 14.5 | 0.00 | 0.00 | 0.00 | 76 | 1011.3 |
| 20260508080347 | 10 | 303 | 9.7 | 17.7 | 0.00 | 0.00 | 0.00 | 76 | 1011.3 |
| 20260508075837 | 10 | 290 | 9.7 | 20.9 | 0.00 | 0.00 | 0.00 | 75 | 1011.4 |
| 20260508075331 | 10 | 289 | 8.0 | 20.9 | 0.00 | 0.00 | 0.00 | 75 | 1011.3 |
| 20260508074832 | 10 | 265 | 9.7 | 19.3 | 0.00 | 0.00 | 0.00 | 75 | 1011.3 |
| 20260508074340 | 10 | 298 | 6.4 | 19.3 | 0.00 | 0.00 | 0.00 | 75 | 1011.4 |
| 20260508073836 | 10 | 275 | 9.7 | 22.5 | 0.00 | 0.00 | 0.00 | 75 | 1011.5 |
| 20260508073325 | 10 | 313 | 12.9 | 22.5 | 0.00 | 0.00 | 0.00 | 76 | 1011.5 |
| 20260508072842 | 10 | 299 | 9.7 | 17.7 | 0.00 | 0.00 | 0.00 | 76 | 1011.4 |
| 20260508072331 | 10 | 277 | 8.0 | 17.7 | 0.00 | 0.00 | 0.00 | 77 | 1011.4 |
| 20260508071838 | 9 | 281 | 8.0 | 17.7 | 0.00 | 0.00 | 0.00 | 77 | 1011.5 |
| 20260508071344 | 9 | 285 | 8.0 | 16.1 | 0.00 | 0.00 | 0.00 | 78 | 1011.4 |
| 20260508070902 | 9 | 264 | 4.8 | 12.9 | 0.00 | 0.00 | 0.00 | 78 | 1011.4 |
| 20260508070349 | 9 | 286 | 8.0 | 16.1 | 0.00 | 0.00 | 0.00 | 79 | 1011.5 |
| 20260508065838 | 9 | 269 | 8.0 | 16.1 | 0.00 | 0.00 | 0.00 | 80 | 1011.6 |
| 20260508065348 | 8 | 292 | 6.4 | 17.7 | 0.00 | 0.00 | 0.00 | 81 | 1011.6 |
| 20260508064831 | 8 | 253 | 6.4 | 17.7 | 0.00 | 0.00 | 0.00 | 82 | 1011.6 |
| 20260508064338 | 8 | 267 | 6.4 | 12.9 | 0.00 | 0.00 | 0.00 | 83 | 1011.6 |
| 20260508063842 | 8 | 278 | 3.2 | 12.9 | 0.00 | 0.00 | 0.00 | 85 | 1011.6 |
| 20260508063332 | 7 | 252 | 4.8 | 12.9 | 0.00 | 0.00 | 0.00 | 87 | 1011.6 |
| 20260508062837 | 7 | 275 | 0.0 | 6.4 | 0.00 | 0.00 | 0.00 | 88 | 1011.6 |
| 20260508062326 | 7 | 275 | 0.0 | 6.4 | 0.00 | 0.00 | 0.00 | 89 | 1011.6 |
| 20260508061832 | 7 | 293 | 0.0 | 3.2 | 0.00 | 0.00 | 0.00 | 89 | 1011.7 |
| 20260508061347 | 7 | 293 | 0.0 | 4.8 | 0.00 | 0.00 | 0.00 | 89 | 1011.7 |
| 20260508060826 | 7 | 293 | 0.0 | 4.8 | 0.00 | 0.00 | 0.00 | 89 | 1011.7 |
| 20260508060336 | 7 | 293 | 0.0 | 0.0 | 0.00 | 0.00 | 0.00 | 89 | 1011.7 |
| 20260508055835 | 7 | 293 | 0.0 | 0.0 | 0.00 | 0.00 | 0.00 | 88 | 1011.8 |
| 20260508055348 | 7 | 293 | 0.0 | 0.0 | 0.00 | 0.00 | 0.00 | 88 | 1011.9 |
| 20260508054857 | 7 | 293 | 0.0 | 0.0 | 0.00 | 0.00 | 0.00 | 88 | 1011.9 |